Date,TemperatureHighF,TemperatureAvgF,TemperatureLowF,DewpointHighF,DewpointAvgF,DewpointLowF,HumidityHigh,HumidityAvg,HumidityLow,PressureMaxIn,PressureMinIn,WindSpeedMaxMPH,WindSpeedAvgMPH,GustSpeedMaxMPH,PrecipitationSumIn
2013-1-1,51.8,42.8,37.4,33.7,29.9,25.7,76,61,37,30.13,30.10,9,3,9,0.00
2013-1-2,53.1,41.7,34.0,33.1,28.3,24.7,75,60,40,30.13,30.03,5,1,6,0.00
2013-1-3,52.0,42.0,34.0,38.5,30.7,24.0,80,64,52,30.11,30.04,6,2,6,0.00
2013-1-4,53.6,43.2,35.6,38.2,32.0,26.8,79,65,47,30.11,30.07,4,1,4,0.00
2013-1-5,50.2,44.5,37.6,42.4,36.6,28.9,87,74,66,30.10,30.00,7,2,7,0.50
2013-1-6,52.0,47.0,41.9,47.8,41.8,35.0,92,82,67,30.05,30.00,8,3,8,0.25
2013-1-7,51.3,44.9,40.5,43.9,38.0,35.0,88,77,60,30.08,30.03,5,1,5,0.00
2013-1-8,55.2,46.1,38.8,44.2,38.0,32.2,87,73,59,30.08,30.03,5,1,5,0.00
2013-1-9,50.9,46.2,41.5,46.6,38.8,28.7,86,76,55,30.05,29.84,8,2,8,0.00
2013-1-10,51.8,42.8,35.4,34.3,28.1,20.8,75,57,30,30.02,29.91,10,2,10,0.00
2013-1-11,49.8,40.7,33.1,31.8,26.7,22.9,73,58,38,30.06,30.00,6,1,6,0.00
2013-1-12,48.7,41.5,36.3,30.7,22.0,10.2,67,48,22,30.12,30.01,9,3,9,0.00
2013-1-13,46.2,38.6,30.6,27.3,20.4,12.2,65,49,26,30.14,30.04,10,3,10,0.00
2013-1-14,50.4,41.2,35.2,21.8,14.6,5.3,53,35,18,30.25,30.08,12,4,12,0.00
2013-1-15,50.2,40.7,33.4,29.1,24.5,20.6,62,53,36,30.35,30.25,5,1,5,0.00
2013-1-16,54.5,42.3,33.4,34.2,27.6,22.7,71,57,29,30.30,30.14,5,1,5,0.00
2013-1-17,57.0,43.4,33.6,36.0,29.5,22.8,74,59,40,30.15,30.04,5,1,5,0.00
2013-1-18,59.0,44.8,34.7,37.4,28.2,20.1,76,54,24,30.08,30.00,7,1,7,0.00
2013-1-19,48.2,43.7,38.5,38.2,31.9,25.8,75,63,49,30.15,30.03,7,2,7,0.00
2013-1-20,61.2,43.3,35.2,35.5,29.8,6.4,79,61,23,30.23,29.78,6,1,6,0.00
2013-1-21,107.1,52.4,28.8,62.2,28.7,-8.3,77,49,5,30.08,29.97,5,1,5,0.00
2013-1-22,60.3,46.5,35.1,37.7,32.4,26.1,80,60,34,30.02,29.88,6,1,6,0.00
2013-1-23,56.8,49.1,44.6,47.6,41.4,35.2,95,75,53,29.97,29.85,10,2,10,0.17
2013-1-24,57.0,52.3,48.2,50.3,48.7,46.8,96,88,75,30.06,29.93,11,3,11,0.03
2013-1-25,60.1,53.7,52.0,56.1,50.9,48.5,95,90,84,30.06,30.01,6,1,6,0.00
2013-1-27,56.3,49.7,42.1,38.7,29.0,22.8,79,46,29,30.03,29.95,12,3,12,0.00
2013-1-28,50.7,42.1,35.6,30.9,29.7,27.8,73,62,44,30.11,29.99,2,0,2,0.00
2013-1-29,48.0,40.8,38.7,39.6,32.4,29.9,80,72,60,30.18,30.08,6,0,6,0.00
2013-1-31,58.3,48.3,38.1,42.4,36.8,30.9,83,65,48,30.17,30.03,4,0,4,0.00
2013-2-1,65.7,51.1,39.0,44.2,37.9,32.1,85,63,38,30.08,29.97,7,1,7,0.00
2013-2-2,64.4,51.4,42.8,45.3,38.8,35.8,85,64,38,30.14,30.04,6,1,6,0.00
2013-2-3,62.1,49.2,39.7,46.7,39.2,33.6,89,70,46,30.10,29.97,6,1,6,0.00
2013-2-4,64.2,50.3,39.6,47.6,40.5,33.9,90,70,47,30.04,29.91,6,1,6,0.00
2013-2-5,60.3,50.3,43.7,44.3,40.0,36.8,85,69,48,29.99,29.90,12,3,12,0.00
2013-2-6,61.9,49.2,41.2,45.8,37.9,32.7,94,68,38,30.06,29.96,9,3,9,0.00
2013-2-7,60.3,48.3,40.5,47.2,35.5,24.4,85,64,30,30.01,29.85,13,4,13,0.00
2013-2-8,58.3,47.5,39.4,38.7,27.8,8.2,86,52,14,29.89,29.77,14,5,14,0.00
2013-2-9,59.0,46.8,36.9,27.2,21.4,12.7,59,39,17,29.95,29.83,9,3,9,0.00
2013-2-10,61.3,46.6,34.2,33.6,26.6,19.8,73,49,21,30.00,29.86,14,2,14,0.00
2013-2-11,62.8,42.2,34.7,28.4,25.0,12.7,70,54,14,30.07,29.93,6,1,6,0.00
2013-2-12,62.1,48.8,36.5,35.8,28.8,23.6,73,48,25,30.23,30.07,5,1,5,0.00
2013-2-13,64.6,50.2,37.0,39.6,31.6,27.2,74,51,29,30.19,30.05,6,1,6,0.00
2013-2-14,68.9,52.7,39.2,42.2,33.9,30.4,79,52,25,30.11,30.00,9,2,9,0.00
2013-2-15,71.2,54.4,40.6,44.4,35.8,30.0,79,53,22,30.16,30.05,5,1,5,0.00
2013-2-16,68.9,54.2,43.0,42.9,34.9,26.6,82,53,21,30.11,29.89,7,2,7,0.00
2013-2-18,49.8,48.0,46.0,35.0,34.1,32.7,62,58,53,29.81,29.78,14,7,14,0.00
2013-2-19,48.7,44.1,39.0,43.9,35.9,31.6,84,73,61,29.79,29.59,14,4,14,0.03
2013-2-20,59.9,46.0,33.6,38.2,26.4,7.4,87,54,13,29.88,29.68,14,3,14,0.00
2013-2-21,61.2,48.1,37.4,37.0,25.2,3.5,78,48,10,30.02,29.86,14,3,14,0.00
2013-2-22,65.1,51.3,36.7,36.5,28.9,19.6,70,46,18,30.09,29.99,8,2,8,0.00
2013-2-23,60.3,51.6,44.2,38.2,18.4,-13.3,77,37,5,30.08,29.97,16,6,16,0.00
2013-2-24,60.6,46.8,39.2,22.3,15.4,1.1,49,30,10,30.10,30.01,15,8,15,0.00
2013-2-25,66.0,53.7,30.2,35.0,23.0,-20.0,63,32,10,30.11,29.99,12,4,12,0.00
2013-2-26,67.1,52.7,40.6,27.4,11.4,-10.1,55,26,5,30.22,29.87,20,6,20,0.00
2013-2-27,70.3,53.4,37.2,34.6,22.5,7.9,59,34,10,30.54,30.08,5,1,5,0.00
2013-2-28,72.7,58.2,44.1,38.7,30.0,13.7,60,39,11,30.27,30.17,9,1,9,0.00
2013-3-1,73.2,58.7,44.2,44.0,37.4,32.1,71,48,24,30.25,30.07,8,1,8,0.00
2013-3-2,74.7,61.0,48.7,47.2,41.5,36.7,75,51,26,30.09,29.90,5,1,5,0.00
2013-3-3,67.1,59.7,50.5,51.5,44.4,40.6,70,57,47,29.92,29.84,9,3,9,0.00
2013-3-4,69.8,55.5,45.9,48.8,41.9,34.5,85,62,40,30.00,29.87,10,3,10,0.00
2013-3-5,64.8,54.0,45.0,40.6,35.2,31.7,70,51,31,29.90,29.70,13,5,13,0.08
2013-3-6,63.9,54.1,48.4,44.4,35.4,22.1,81,53,21,29.92,29.70,15,5,15,0.14
2013-3-7,62.6,52.2,42.6,39.4,33.1,22.2,72,51,24,29.87,29.73,6,2,6,0.00
2013-3-8,68.9,53.2,41.0,37.0,31.8,20.2,68,48,17,29.88,29.67,15,4,15,0.00
2013-3-9,70.5,55.7,42.3,42.9,21.1,-10.9,83,39,5,30.12,29.88,15,4,15,0.00
2013-3-10,71.8,56.9,42.1,40.8,29.6,12.1,64,39,10,30.22,30.08,8,1,8,0.00
2013-3-11,75.6,58.8,43.2,44.6,33.9,16.1,76,44,11,30.12,29.93,7,1,7,0.00
2013-3-12,78.6,62.3,46.6,46.0,38.3,31.3,74,45,20,30.02,29.89,6,1,6,0.00
2013-3-13,57.6,55.0,52.5,42.0,40.9,39.8,64,59,55,29.97,29.95,0,0,0,0.00
2013-3-14,81.7,71.9,57.9,52.2,44.0,37.3,76,39,22,30.00,29.90,7,2,7,0.00
2013-3-15,77.7,62.9,50.5,49.8,40.6,28.2,75,48,17,29.97,29.83,10,2,10,0.00
2013-3-16,79.3,63.4,48.0,47.0,33.0,1.2,76,41,5,29.93,29.80,12,2,12,0.00
2013-3-17,60.6,53.2,47.7,38.1,33.4,30.0,60,48,32,29.98,29.89,6,2,6,0.00
2013-3-18,61.5,59.8,58.5,37.2,35.1,33.3,45,40,36,29.92,29.90,8,4,8,0.00
2013-3-19,76.5,61.4,49.8,44.5,38.0,31.1,69,45,20,29.98,29.89,13,2,13,0.14
2013-3-20,64.4,57.9,52.3,56.7,49.8,44.3,88,75,61,29.97,29.92,10,3,10,0.30
2013-3-21,53.1,51.4,49.3,46.7,45.5,43.5,81,80,79,29.95,29.94,6,1,6,0.00
2013-3-24,77.9,64.5,44.2,38.1,21.3,-3.8,62,27,5,29.95,29.77,7,2,7,0.00
2013-3-25,73.4,59.5,48.7,44.8,35.7,27.8,69,44,20,29.85,29.75,13,4,13,0.00
2013-3-26,77.2,60.9,47.1,44.3,37.3,28.7,74,46,19,29.85,29.74,11,4,11,0.00
2013-3-27,75.9,61.2,49.5,48.3,40.7,35.2,71,49,25,29.86,29.78,14,4,14,0.00
2013-3-28,74.7,62.9,54.1,52.2,45.9,37.8,76,57,27,29.95,29.86,8,2,8,0.00
2013-3-29,82.6,65.9,51.3,50.1,41.6,21.2,84,49,12,29.96,29.82,5,2,8,0.00
2013-3-30,82.0,65.2,54.3,49.9,43.9,31.2,73,50,21,29.90,29.79,7,2,13,0.06
2013-3-31,78.6,65.4,57.9,53.1,46.4,33.9,83,55,21,29.93,29.82,16,2,16,0.08
2013-4-1,76.3,63.6,54.9,55.1,47.7,39.5,86,60,30,30.00,29.91,8,2,8,0.00
2013-4-2,77.9,63.2,50.4,54.2,44.5,31.5,84,55,20,30.03,29.88,8,3,8,0.00
2013-4-3,82.6,65.9,50.5,51.6,43.9,37.1,81,50,20,29.99,29.80,7,1,7,0.00
2013-4-4,68.4,60.2,54.7,59.3,49.4,36.1,88,69,41,29.97,29.82,14,5,14,0.00
2013-4-5,77.0,62.9,52.0,57.2,46.8,40.1,89,60,29,30.02,29.93,13,4,13,0.00
2013-4-6,75.4,62.4,54.1,52.3,47.1,43.2,80,59,35,30.04,29.93,10,3,10,0.00
2013-4-7,76.1,61.4,52.3,52.1,43.1,12.4,78,54,10,29.99,29.66,18,6,18,0.03
2013-4-8,69.4,58.5,49.3,46.4,16.0,-10.6,77,31,5,29.83,29.60,20,8,26,0.00
2013-4-9,76.5,63.3,49.6,31.2,13.5,-5.9,48,19,5,29.92,29.83,22,8,22,0.00
2013-4-10,89.1,70.8,53.1,45.2,29.4,7.8,49,27,5,30.01,29.76,9,4,9,0.00
2013-4-11,81.0,69.6,56.5,45.0,23.5,-3.0,57,25,5,29.81,29.62,15,4,15,1.27
2013-4-12,86.2,71.6,54.1,42.7,27.6,4.1,52,25,5,30.30,29.59,40,3,40,0.00
2013-4-13,84.0,66.2,52.2,44.5,37.1,22.9,64,38,11,29.72,29.59,9,1,9,0.00
2013-4-14,82.0,64.5,49.5,36.5,22.3,-2.5,56,28,5,29.74,29.57,15,4,15,0.00
2013-4-15,74.3,59.4,48.7,43.5,31.4,8.8,66,39,10,29.74,29.61,20,3,20,0.00
2013-4-16,70.3,57.4,48.7,21.6,5.9,-14.5,34,17,5,29.97,29.74,21,8,21,0.00
2013-4-17,72.5,59.9,45.9,27.3,5.1,-12.0,45,16,5,30.08,29.97,18,6,19,0.00
2013-4-18,81.0,64.8,47.8,27.2,10.4,-6.9,43,16,5,30.09,29.97,10,3,10,0.00
2013-4-19,89.4,70.3,50.9,43.5,27.1,4.5,53,27,5,30.06,29.83,6,2,6,0.00
2013-4-20,85.8,71.2,57.7,39.8,17.7,-0.4,38,17,5,29.95,29.74,15,5,15,0.00
2013-4-21,90.0,72.1,52.5,44.6,26.1,3.0,65,27,5,29.86,29.70,9,2,9,0.00
2013-4-22,90.3,74.2,59.4,42.1,20.6,-4.6,50,21,5,29.79,29.62,14,5,14,0.00
2013-4-23,87.8,73.0,58.5,24.7,0.7,-12.4,24,6,5,29.74,29.60,19,6,19,0.00
2013-4-24,93.4,69.7,52.3,40.6,26.3,1.4,58,28,5,29.68,29.54,15,4,15,0.00
2013-4-25,83.7,66.2,52.5,43.6,36.0,23.5,59,38,12,29.90,29.67,14,5,14,0.00
2013-4-26,88.3,67.6,50.9,46.7,38.4,23.1,72,41,10,30.03,29.90,12,3,12,0.00
2013-4-27,93.6,71.4,52.3,47.7,38.6,18.7,69,37,7,30.03,29.82,9,3,9,0.00
2013-4-28,94.8,75.1,55.9,49.0,32.6,5.9,63,32,5,29.86,29.64,10,2,10,0.00
2013-4-29,93.6,78.6,64.2,46.0,26.1,5.6,50,21,5,29.70,29.52,15,3,15,0.00
2013-4-30,84.7,74.1,63.9,36.6,10.7,-5.0,28,11,5,29.64,29.54,21,9,21,0.00
2013-5-1,90.0,74.8,60.4,9.8,-0.8,-11.0,5,5,5,29.85,29.64,18,8,18,0.00
2013-5-2,95.4,77.1,57.9,18.5,4.4,-10.8,21,6,5,29.97,29.82,12,4,12,0.00
2013-5-3,96.8,77.8,58.1,38.4,15.4,-6.8,41,13,5,29.84,29.55,8,2,9,0.00
2013-5-4,92.8,76.6,62.2,39.9,19.8,1.1,43,17,5,29.55,29.29,15,5,15,0.00
2013-5-5,84.0,69.9,56.8,43.0,34.5,20.7,56,32,11,29.62,29.35,16,6,16,0.00
2013-5-6,79.0,67.4,60.4,52.7,43.2,32.2,71,45,20,29.77,29.62,13,3,13,0.11
2013-5-7,84.2,70.1,59.4,51.7,44.0,31.2,72,44,16,29.84,29.77,8,3,8,0.00
2013-5-8,83.5,67.8,57.4,53.8,43.5,31.7,76,46,16,29.93,29.82,13,5,13,0.00
2013-5-9,90.7,69.6,54.1,50.4,43.5,34.5,74,44,15,29.95,29.82,14,5,14,0.00
2013-5-10,94.1,72.5,54.3,50.5,44.2,33.0,71,42,12,29.98,29.83,11,4,11,0.00
2013-5-11,100.6,78.9,59.2,52.4,42.3,28.1,64,34,9,29.93,29.78,7,3,7,0.00
2013-5-12,100.6,78.8,60.8,50.4,33.3,12.1,52,27,5,29.91,29.76,12,4,12,0.00
2013-5-13,99.5,78.1,59.0,48.1,34.9,10.2,56,29,5,29.87,29.68,11,4,11,0.00
2013-5-14,96.3,76.8,59.7,51.8,34.2,6.7,62,30,5,29.72,29.65,13,4,13,0.00
2013-5-15,86.5,70.0,55.2,43.0,33.2,13.7,57,32,7,29.83,29.72,16,6,16,0.00
2013-5-16,61.5,59.5,58.3,44.0,42.3,40.8,57,53,48,29.77,29.75,8,3,8,0.00
2013-5-18,89.6,72.2,59.0,45.2,30.6,5.3,58,31,5,29.91,29.82,6,2,11,0.69
2013-5-19,87.3,77.9,59.9,37.1,16.7,0.8,41,13,5,29.93,29.75,14,7,14,0.00
2013-5-20,97.2,78.7,62.8,37.5,20.6,-0.6,36,16,5,29.82,29.66,13,5,13,0.00
2013-5-21,92.3,73.1,59.7,41.0,25.4,0.9,49,23,5,29.73,29.64,16,6,16,0.00
2013-5-22,79.2,65.0,51.6,31.1,3.7,-12.7,36,11,5,29.81,29.67,15,6,15,0.00
2013-5-23,85.6,67.5,49.5,39.0,20.6,-3.8,57,25,5,29.79,29.68,7,3,7,0.00
2013-5-24,90.3,69.9,52.5,40.1,23.1,-4.3,56,26,5,29.82,29.70,13,4,13,0.00
2013-5-25,89.1,68.5,52.2,43.6,29.6,1.1,64,33,5,29.83,29.74,15,5,15,0.00
2013-5-26,90.0,69.8,54.3,49.6,35.7,8.6,73,37,5,29.88,29.80,14,4,14,0.00
2013-5-27,72.7,63.8,54.7,52.5,45.0,39.2,76,52,32,29.91,29.81,12,4,12,0.03
2013-5-28,87.4,71.5,58.6,57.6,44.6,23.4,82,47,11,29.82,29.67,10,3,10,0.03
2013-5-29,91.9,72.5,59.7,50.9,38.5,8.6,63,36,5,29.75,29.65,12,4,12,0.00
2013-5-30,87.4,73.7,55.8,48.3,36.1,17.3,60,31,11,29.77,29.69,10,3,10,0.00
2013-5-31,94.6,69.5,57.6,43.7,32.1,-12.8,59,37,5,29.81,29.66,15,3,15,0.00
2013-6-1,102.9,82.9,61.2,51.7,28.9,8.6,57,22,5,29.70,29.51,11,2,11,0.00
2013-6-2,103.8,82.8,63.7,50.1,29.6,5.9,53,22,5,29.55,29.41,13,3,13,0.00
2013-6-3,99.0,78.1,61.9,49.2,34.1,11.7,57,28,5,29.58,29.46,14,4,14,0.00
2013-6-4,92.5,73.5,58.6,49.7,39.0,24.7,61,35,9,29.69,29.58,14,5,14,0.00
2013-6-5,94.8,73.4,56.1,50.7,41.8,25.8,70,39,10,29.79,29.63,13,5,13,0.00
2013-6-6,99.9,76.2,56.7,51.7,43.3,27.1,69,38,9,29.74,29.56,12,4,12,0.00
2013-6-7,105.1,82.9,59.5,52.7,42.5,16.3,65,32,5,29.67,29.46,8,3,8,0.00
2013-6-8,109.8,88.7,69.4,57.1,37.5,12.4,56,24,5,29.52,29.39,13,3,13,0.00
2013-6-9,89.1,73.8,62.2,50.7,45.0,34.5,61,39,15,29.65,29.47,21,9,21,0.00
2013-6-10,81.9,69.1,59.2,51.1,45.4,37.6,70,46,23,29.75,29.61,18,7,18,0.00
2013-6-11,94.5,76.2,58.5,53.1,38.6,8.0,66,35,5,29.78,29.65,10,3,10,0.00
2013-6-12,98.1,76.8,59.5,52.3,33.0,2.8,61,29,5,29.75,29.65,14,4,14,0.00
2013-6-13,93.2,75.0,56.1,44.7,27.2,2.1,53,25,5,29.87,29.73,9,3,9,0.00
2013-6-14,95.4,78.7,65.1,43.6,20.3,1.6,45,16,5,29.76,29.57,13,5,13,0.00
2013-6-15,99.1,77.1,59.7,44.4,29.7,8.3,52,24,5,29.72,29.59,13,5,13,0.00
2013-6-16,100.0,77.8,57.6,48.8,29.7,3.6,59,27,5,29.83,29.72,11,4,11,0.00
2013-6-17,97.0,75.8,59.2,47.4,33.9,9.7,57,30,5,29.84,29.72,18,6,19,0.00
2013-6-18,92.5,71.8,56.3,50.7,35.4,4.5,73,38,5,29.79,29.68,18,6,18,0.00
2013-6-19,87.8,71.5,53.1,45.3,26.5,2.6,61,29,5,29.85,29.75,10,3,10,0.00
2013-6-20,95.2,75.3,57.0,50.7,29.4,1.6,59,28,5,29.79,29.68,12,4,12,0.00
2013-6-21,95.7,77.5,58.5,49.1,27.3,2.8,57,24,5,29.76,29.64,10,3,10,0.00
2013-6-22,101.8,79.9,59.7,52.2,28.7,3.7,63,24,5,29.72,29.56,12,4,12,0.00
2013-6-23,84.2,70.3,61.5,54.2,50.6,41.1,66,51,30,29.65,29.57,17,6,17,0.00
2013-6-24,74.7,66.8,62.1,60.2,55.6,52.0,77,68,46,29.73,29.60,9,4,9,0.06
2013-6-25,83.7,71.0,64.2,68.3,60.3,56.9,88,70,46,29.82,29.67,9,3,9,0.11
2013-6-26,97.0,80.3,63.5,64.4,52.7,31.7,86,47,11,29.87,29.76,12,4,12,0.00
2013-6-27,103.5,85.1,72.0,60.2,41.6,10.8,54,30,5,29.88,29.76,7,3,7,0.00
2013-6-28,111.4,90.3,69.3,62.6,38.7,12.4,62,26,5,29.80,29.63,8,3,8,0.00
2013-6-29,109.6,94.9,71.2,69.6,32.3,12.2,53,15,5,29.70,29.52,9,3,9,0.00
2013-6-30,113.7,91.7,71.6,55.6,37.1,13.5,49,21,5,29.63,29.48,9,3,9,0.00
2013-7-1,110.3,89.5,68.9,53.8,38.3,14.2,52,24,5,29.62,29.53,7,3,7,0.00
2013-7-2,111.4,90.4,75.4,55.4,37.2,8.7,46,21,5,29.64,29.56,14,5,14,0.00
2013-7-3,112.1,89.1,71.1,55.9,40.9,16.8,53,26,5,29.66,29.48,9,3,9,0.00
2013-7-4,114.3,92.0,74.5,61.2,39.8,15.9,55,23,5,29.53,29.38,12,4,12,0.00
2013-7-5,93.9,79.4,65.5,49.2,36.4,15.7,50,25,6,29.54,29.42,15,6,15,0.00
2013-7-6,96.6,76.3,59.5,52.4,38.4,8.4,67,35,5,29.60,29.48,12,6,12,0.00
2013-7-7,102.7,79.4,59.5,52.9,35.1,4.2,66,31,5,29.64,29.53,9,4,9,0.00
2013-7-8,103.5,80.1,58.8,51.1,32.1,2.8,65,28,5,29.73,29.61,9,4,9,0.00
2013-7-9,107.1,85.9,63.5,52.0,31.7,7.0,55,23,5,29.82,29.67,6,2,6,0.00
2013-7-10,103.5,83.3,64.9,49.8,32.0,6.5,51,22,5,29.74,29.62,14,5,14,0.00
2013-7-11,94.3,75.5,58.8,55.2,35.6,8.0,67,32,5,29.72,29.60,15,6,15,0.00
2013-7-12,93.2,75.4,58.5,56.4,40.7,11.0,71,36,5,29.74,29.61,12,6,12,0.00
2013-7-13,99.1,80.6,61.7,56.7,34.1,7.4,59,27,5,29.75,29.63,10,4,10,0.00
2013-7-14,98.1,79.9,62.1,53.2,35.2,7.8,54,26,5,29.77,29.61,10,4,10,0.00
2013-7-15,89.4,73.3,58.5,52.9,40.0,9.2,64,35,5,29.72,29.58,14,6,14,0.00
2013-7-16,83.7,70.0,57.4,56.5,46.1,38.8,76,47,21,29.83,29.66,16,8,16,0.00
2013-7-17,94.8,74.7,57.4,57.8,40.8,10.5,71,40,5,29.93,29.78,10,4,10,0.00
2013-7-18,100.4,79.9,60.4,58.2,36.8,8.4,65,31,5,29.87,29.67,10,3,10,0.00
2013-7-19,102.0,81.5,61.9,56.6,38.6,12.4,60,29,5,29.75,29.55,12,4,12,0.00
2013-7-20,101.8,81.2,62.8,54.6,40.8,12.2,59,30,5,29.66,29.45,12,4,12,0.00
2013-7-21,97.7,80.6,63.7,55.0,35.3,11.8,56,27,5,29.64,29.51,17,6,17,0.00
2013-7-22,94.8,80.5,67.1,51.9,30.6,1.9,55,23,5,29.75,29.64,18,6,18,0.00
2013-7-23,93.9,81.3,69.4,49.7,33.9,10.7,46,22,5,29.81,29.69,14,4,14,0.00
2013-7-24,101.8,83.6,66.0,56.4,36.0,8.6,57,26,5,29.79,29.63,9,4,9,0.00
2013-7-25,99.7,83.0,68.5,54.4,40.2,13.5,50,26,5,29.76,29.66,13,4,13,0.00
2013-7-26,98.1,79.1,63.3,55.1,42.6,15.3,60,33,5,29.88,29.72,12,5,12,0.00
2013-7-27,94.6,77.2,60.8,57.1,45.4,23.1,66,37,8,29.81,29.60,12,5,12,0.00
2013-7-28,91.8,74.8,60.1,57.8,46.5,29.4,72,41,11,29.69,29.56,13,6,13,0.00
2013-7-29,86.0,69.7,57.7,52.6,46.1,26.1,76,48,12,29.81,29.63,16,8,16,0.00
2013-7-30,93.0,73.9,57.7,55.5,44.9,8.7,72,43,5,29.92,29.77,10,4,10,0.00
2013-7-31,91.4,73.8,58.8,55.6,42.4,23.8,71,38,9,29.91,29.75,14,6,14,0.00
2013-8-1,90.5,74.6,59.5,55.9,38.0,7.4,68,34,5,29.89,29.73,14,5,14,0.00
2013-8-2,96.1,77.8,61.0,56.9,35.7,7.2,64,31,5,29.79,29.64,10,3,10,0.00
2013-8-3,94.1,76.4,59.5,57.7,39.8,8.9,69,34,5,29.80,29.66,10,4,10,0.00
2013-8-4,92.1,74.1,57.9,55.6,42.5,8.2,72,39,5,29.82,29.69,12,5,12,0.00
2013-8-5,92.7,73.6,57.4,58.0,39.9,7.2,74,39,5,29.85,29.69,12,5,12,0.00
2013-8-6,88.2,71.3,57.2,56.9,45.5,29.1,73,44,14,29.84,29.74,14,6,14,0.00
2013-8-7,84.4,70.4,58.5,56.5,49.1,43.3,73,50,25,29.93,29.82,15,7,15,0.00
2013-8-8,88.7,72.1,59.2,58.8,47.0,18.5,77,47,10,29.86,29.71,12,4,12,0.00
2013-8-9,87.3,71.6,57.9,56.5,48.1,40.5,75,47,20,29.80,29.69,12,6,12,0.00
2013-8-10,90.3,73.2,58.6,59.6,49.3,36.2,78,48,15,29.86,29.75,13,5,13,0.00
2013-8-11,90.3,71.8,60.4,61.2,50.4,26.2,76,50,10,29.84,29.68,9,3,9,0.00
2013-8-12,93.9,76.5,60.4,59.4,41.0,7.0,72,37,5,29.80,29.69,9,3,9,0.00
2013-8-13,98.4,79.2,61.2,56.9,34.8,9.2,66,29,5,29.81,29.65,8,3,9,0.00
2013-8-14,98.1,79.7,63.0,55.1,39.3,9.3,55,30,5,29.77,29.63,10,3,10,0.00
2013-8-15,97.9,80.3,65.3,63.7,48.9,13.6,74,41,5,29.75,29.64,10,4,10,0.00
2013-8-16,99.5,81.8,66.7,67.1,46.3,13.1,76,39,5,29.77,29.66,10,3,10,0.00
2013-8-17,97.0,79.7,66.7,57.5,47.1,27.7,59,35,9,29.78,29.59,12,3,12,0.00
2013-8-18,101.1,83.4,66.0,60.3,47.0,16.8,65,35,5,29.69,29.52,7,2,7,0.00
2013-8-19,103.6,84.9,73.0,60.1,45.9,15.8,56,33,5,29.68,29.52,12,2,12,0.00
2013-8-20,97.7,81.0,69.1,55.6,48.8,34.0,57,36,12,29.68,29.53,12,5,12,0.00
2013-8-21,92.1,76.5,64.0,55.2,42.1,9.4,62,36,5,29.72,29.60,13,5,13,0.00
2013-8-22,89.1,73.8,61.2,56.4,44.8,26.9,69,40,11,29.75,29.62,14,5,14,0.00
2013-8-23,92.5,74.1,59.0,58.9,45.6,10.7,74,43,5,29.73,29.55,9,4,9,0.00
2013-8-24,92.3,75.5,62.4,56.3,46.0,22.3,65,40,10,29.68,29.58,14,5,14,0.00
2013-8-25,91.4,76.4,66.0,61.1,53.5,40.2,76,50,18,29.75,29.64,12,4,12,0.00
2013-8-26,91.8,75.2,62.6,60.1,45.0,9.7,77,43,5,29.82,29.66,10,5,10,0.00
2013-8-27,95.7,75.9,60.6,61.5,41.2,9.3,73,38,5,29.70,29.56,12,3,12,0.00
2013-8-28,95.0,77.4,63.3,62.0,47.8,12.5,75,44,5,29.72,29.61,9,4,9,0.00
2013-8-29,94.5,77.9,64.2,65.8,51.8,17.0,80,48,6,29.84,29.69,8,4,8,0.00
2013-8-30,98.6,80.2,63.9,67.0,44.9,12.0,80,40,5,29.84,29.65,7,2,7,0.00
2013-8-31,96.3,79.2,66.0,58.9,40.9,9.4,64,34,5,29.75,29.62,14,4,14,0.00
2013-9-1,94.5,77.4,65.3,56.2,43.3,9.2,63,38,5,29.73,29.62,14,5,14,0.00
2013-9-2,83.3,74.8,70.0,63.6,57.6,55.1,65,55,40,29.75,29.66,7,3,7,0.00
2013-9-3,89.8,75.3,64.0,58.5,43.2,7.8,67,41,5,29.79,29.69,14,4,14,0.00
2013-9-4,91.0,74.8,63.1,58.7,45.9,9.8,73,44,5,29.83,29.69,12,4,12,0.00
2013-9-5,90.5,74.6,62.1,60.4,44.5,8.6,75,43,5,29.81,29.69,13,4,13,0.00
2013-9-6,93.0,75.8,60.6,55.8,38.9,8.6,72,37,5,29.80,29.59,11,2,11,0.00
2013-9-7,99.1,79.2,61.0,52.1,33.9,9.7,64,29,5,29.70,29.55,5,1,5,0.00
2013-9-8,99.7,81.2,64.0,53.5,35.5,10.6,59,28,5,29.67,29.48,8,2,8,0.00
2013-9-9,101.1,82.4,65.7,55.2,34.7,8.0,59,27,5,29.60,29.41,7,2,7,0.00
2013-9-10,90.3,75.6,66.4,55.3,49.5,36.0,65,43,15,29.65,29.46,17,6,17,0.00
2013-9-11,85.3,71.9,63.1,56.7,53.8,49.1,73,55,30,29.80,29.65,12,6,12,0.00
2013-9-12,90.3,73.6,61.7,59.0,53.9,45.9,79,55,22,29.80,29.62,9,4,9,0.00
2013-9-13,93.0,75.1,62.8,57.3,51.2,38.2,74,48,16,29.70,29.50,13,4,13,0.00
2013-9-14,88.5,73.4,62.1,55.9,50.3,43.4,72,47,22,29.62,29.48,13,4,13,0.00
2013-9-15,89.6,71.9,59.5,54.2,48.1,27.4,77,49,11,29.66,29.54,11,5,11,0.00
2013-9-16,89.4,73.1,61.5,59.0,50.1,26.7,82,51,11,29.71,29.54,10,3,10,0.00
2013-9-17,85.8,71.9,61.2,53.0,46.1,26.6,72,45,12,29.67,29.58,10,4,10,0.00
2013-9-18,86.2,72.9,61.9,48.5,30.2,3.3,57,28,5,29.73,29.57,15,5,15,0.00
2013-9-19,90.3,72.9,57.2,47.7,32.2,6.8,61,30,5,29.70,29.51,7,1,7,0.00
2013-9-20,84.9,71.3,60.6,56.0,45.9,32.9,65,42,19,29.68,29.56,17,5,17,0.00
2013-9-21,72.1,65.4,59.2,59.5,55.9,51.0,83,72,48,29.73,29.64,8,2,8,0.58
2013-9-22,76.6,66.0,57.7,55.1,50.9,42.1,84,62,30,29.85,29.73,8,2,8,0.00
2013-9-23,84.6,69.9,56.8,55.2,49.3,36.1,82,53,18,29.85,29.70,7,2,7,0.00
2013-9-24,83.5,70.0,61.9,53.9,47.9,33.6,71,49,17,29.78,29.63,16,4,16,0.00
2013-9-25,76.8,65.2,54.9,46.7,33.7,-1.9,66,38,5,29.75,29.60,12,3,12,0.00
2013-9-26,76.5,65.0,54.1,37.2,22.0,-2.9,49,25,5,29.79,29.63,15,7,15,0.00
2013-9-27,80.2,65.8,54.0,36.4,24.3,-0.9,47,27,5,29.91,29.78,9,3,9,0.00
2013-9-28,84.6,68.0,52.5,48.6,24.8,-1.5,56,28,5,29.92,29.76,8,2,8,0.00
2013-9-29,81.9,69.8,60.4,56.6,51.9,47.6,77,55,31,29.92,29.82,12,5,12,0.00
2013-9-30,81.5,71.0,64.0,59.4,55.3,51.6,78,60,36,29.88,29.73,12,4,12,0.00
2013-10-1,78.8,66.8,55.4,53.1,41.6,21.7,65,44,13,29.83,29.70,8,2,9,0.00
2013-10-2,81.7,67.3,56.3,45.1,34.4,3.6,59,35,5,29.81,29.70,10,2,10,0.00
2013-10-3,74.8,65.3,55.8,30.8,10.9,-8.2,38,16,5,29.86,29.72,24,9,24,0.00
2013-10-4,81.9,68.4,57.7,16.6,1.0,-10.2,19,8,5,29.90,29.79,18,7,18,0.00
2013-10-5,83.3,66.3,51.4,34.9,17.5,-2.9,41,20,5,30.03,29.90,6,1,6,0.00
2013-10-6,83.7,65.7,50.7,41.4,29.2,2.3,59,33,5,29.97,29.80,6,1,6,0.00
2013-10-7,84.9,67.9,53.2,41.3,24.8,0.4,57,28,5,29.82,29.65,6,1,6,0.00
2013-10-8,78.4,65.4,55.2,37.9,24.9,-1.1,47,27,5,29.72,29.48,10,3,10,0.00
2013-10-9,76.5,64.5,55.9,35.8,22.6,-3.0,46,25,5,29.55,29.42,14,4,14,0.00
2013-10-10,75.9,64.0,55.0,43.7,33.2,14.8,59,36,10,29.81,29.55,9,2,9,0.00
2013-10-11,77.2,63.0,52.0,46.1,38.8,23.8,73,45,16,29.90,29.76,7,2,7,0.00
2013-10-12,77.5,62.5,51.6,47.7,38.5,16.3,73,46,10,29.83,29.67,8,2,8,0.00
2013-10-13,75.7,63.3,53.8,42.8,30.0,-1.8,61,35,5,29.85,29.69,12,4,12,0.00
2013-10-14,77.5,62.2,49.3,39.9,27.6,-2.4,61,34,5,29.95,29.81,9,2,9,0.00
2013-10-15,80.2,63.8,50.0,37.2,19.4,-6.8,57,28,5,29.89,29.75,12,3,12,0.00
2013-10-16,79.9,63.2,49.3,39.8,27.6,0.5,58,32,5,29.94,29.80,5,1,5,0.00
2013-10-17,80.1,63.6,50.2,41.2,30.0,0.3,59,36,5,29.92,29.75,6,1,6,0.00
2013-10-18,80.2,63.4,48.9,40.5,32.0,1.8,64,38,5,29.89,29.78,6,1,6,0.00
2013-10-19,81.7,64.1,50.2,44.8,33.3,2.1,66,40,5,29.92,29.79,6,1,6,0.00
2013-10-20,81.7,64.2,49.8,44.9,32.7,3.0,68,39,5,29.85,29.69,6,1,6,0.00
2013-10-21,80.1,64.4,51.6,46.8,38.7,15.6,66,43,9,29.83,29.69,5,1,5,0.00
2013-10-22,81.5,64.8,51.8,49.9,38.1,3.9,76,45,5,29.85,29.70,8,1,8,0.00
2013-10-23,81.5,64.2,50.7,48.3,35.5,3.0,72,43,5,29.79,29.65,7,2,7,0.00
2013-10-24,72.3,59.9,51.1,48.3,43.1,39.3,76,56,32,29.88,29.73,8,3,8,0.00
2013-10-25,75.0,60.0,48.0,47.4,42.0,30.5,77,55,20,30.01,29.87,7,1,7,0.00
2013-10-26,77.9,61.9,49.3,47.6,40.7,22.6,77,50,13,30.00,29.81,6,1,6,0.00
2013-10-27,69.1,58.3,51.3,46.2,42.0,39.3,70,56,35,29.83,29.46,20,5,20,0.00
2013-10-28,68.7,53.5,48.2,44.9,41.6,34.5,77,66,29,29.60,29.48,9,2,9,0.00
2013-11-9,50.9,50.0,49.1,39.2,38.7,38.2,66,65,63,29.91,29.91,0,0,9,0.00
2013-11-10,68.2,57.4,50.9,40.4,39.6,37.0,65,52,32,29.95,29.90,4,0,4,0.00
2013-11-11,68.5,56.0,45.5,46.0,40.3,36.4,79,58,31,30.03,29.93,5,1,5,0.00
2013-11-12,72.0,60.8,53.4,43.9,39.1,25.8,66,48,18,30.12,30.00,7,1,7,0.00
2013-11-13,75.2,58.7,46.6,44.9,38.8,22.7,77,52,15,30.10,29.91,7,1,7,0.00
2013-11-14,66.9,56.4,50.2,53.9,44.7,41.4,73,65,45,29.96,29.70,7,1,7,0.00
2013-11-15,67.1,54.9,45.1,41.9,29.0,5.7,79,45,9,29.71,29.57,14,2,14,0.00
2013-11-16,64.4,54.0,45.5,41.7,35.0,24.2,75,51,22,29.81,29.62,7,2,7,0.00
2013-11-17,63.9,52.0,43.5,45.5,39.8,34.2,79,64,45,29.94,29.81,5,1,5,0.00
2013-11-18,61.9,52.6,43.7,47.4,41.3,36.6,84,66,43,29.98,29.94,8,2,8,0.00
2013-11-19,63.5,57.1,52.3,53.9,49.0,43.6,90,75,57,29.98,29.83,5,1,5,0.39
2013-11-20,60.1,57.8,56.1,57.7,55.5,53.1,95,92,89,29.84,29.72,8,2,8,0.30
2013-11-21,60.1,54.9,50.2,53.9,24.9,2.5,91,39,12,29.89,29.75,22,9,22,0.20
2013-11-22,68.7,55.8,47.3,32.6,3.7,-14.2,56,16,5,29.91,29.76,20,7,20,0.00
2013-11-23,62.2,50.9,42.6,46.4,37.1,32.1,80,60,37,29.98,29.86,6,1,6,0.00
2013-11-24,61.5,50.4,42.3,42.8,38.0,34.7,80,64,43,30.12,29.98,5,1,5,0.00
2013-11-25,63.1,50.3,41.7,44.6,37.7,34.7,82,64,41,30.18,30.12,6,1,6,0.00
2013-11-26,60.3,50.3,42.6,42.1,37.1,34.0,75,61,41,30.14,29.97,6,1,6,0.00
2013-11-27,62.6,52.3,44.6,44.3,38.4,35.9,80,60,42,29.97,29.75,7,2,7,0.00
2013-11-28,66.6,53.7,45.7,41.9,37.1,31.4,73,55,27,29.94,29.77,6,1,6,0.00
2013-11-29,65.5,52.1,42.4,43.9,36.6,33.6,79,57,31,30.08,29.94,6,1,6,0.00
2013-11-30,64.8,51.9,43.7,45.0,37.1,34.2,78,59,33,30.13,30.05,6,1,6,0.00
2013-12-1,65.1,51.9,41.7,43.2,37.7,33.9,78,60,37,30.15,30.08,5,0,5,0.00
2013-12-2,64.8,52.8,42.1,45.0,40.2,34.4,80,64,42,30.10,29.79,10,2,10,0.00
2013-12-3,55.8,51.6,42.3,50.1,20.2,-16.8,84,40,5,29.80,29.70,17,6,17,0.00
2013-12-4,49.6,40.9,34.0,16.5,4.1,-13.3,40,24,7,29.92,29.80,17,5,17,0.00
2013-12-5,48.9,38.2,31.8,12.9,6.8,-4.8,42,29,11,30.00,29.92,9,2,9,0.00
2013-12-6,47.7,38.9,29.1,32.5,20.5,10.9,71,48,37,30.00,29.81,20,3,20,0.39
2013-12-7,48.2,40.5,33.6,36.3,27.9,17.7,81,63,32,30.08,29.79,13,2,13,0.03
2013-12-8,43.5,35.4,30.7,24.0,19.5,11.9,70,53,30,30.08,30.08,9,3,9,0.00
2013-12-9,47.7,35.7,27.0,26.4,19.4,13.7,65,52,34,30.25,30.08,7,1,7,0.00
2013-12-10,50.0,38.5,30.2,27.1,22.0,18.5,69,53,31,30.25,30.09,6,1,6,0.00
2013-12-11,53.6,40.2,31.1,31.3,23.4,19.6,69,52,31,30.11,30.07,6,1,6,0.00
2013-12-12,55.2,41.5,31.1,33.2,25.5,20.0,73,54,31,30.11,30.03,6,1,6,0.00
2013-12-13,57.7,43.7,34.3,33.2,26.6,20.8,72,53,24,30.16,30.09,8,1,8,0.00
2013-12-14,57.4,44.2,34.9,34.7,28.0,23.5,68,54,33,30.26,30.16,5,1,5,0.00
2013-12-15,57.6,43.8,34.0,36.6,28.6,24.0,74,56,32,30.25,30.12,6,1,6,0.00
2013-12-16,59.7,45.4,35.6,38.2,30.4,25.5,73,57,34,30.14,30.00,4,0,4,0.00
2013-12-17,61.5,48.1,39.2,40.4,33.3,28.7,75,58,37,30.07,29.93,5,1,5,0.00
2013-12-18,58.8,49.7,42.6,40.6,36.1,31.4,72,60,40,29.93,29.60,6,1,6,0.00
2013-12-19,58.8,49.2,43.2,38.6,18.0,-5.7,77,39,7,29.73,29.58,26,7,26,0.00
2013-12-20,60.3,47.7,39.0,21.3,-3.6,-17.2,41,14,5,29.86,29.73,13,4,13,0.00
2013-12-21,58.3,45.9,37.0,33.2,25.5,21.2,61,46,25,29.89,29.84,7,1,7,0.00
2013-12-22,59.4,46.0,36.1,34.9,27.8,23.7,67,50,30,30.10,29.89,5,0,5,0.00
2013-12-23,61.0,47.6,37.6,38.4,30.0,25.8,70,52,30,30.20,30.09,6,1,6,0.00
2013-12-24,61.7,48.0,39.0,39.0,31.7,27.7,70,54,33,30.20,30.08,6,1,6,0.00
2013-12-25,61.0,46.8,36.7,40.2,31.9,26.4,74,57,37,30.13,30.09,6,1,6,0.00
2013-12-26,61.5,46.4,35.8,38.3,30.0,25.5,76,54,30,30.13,30.06,5,1,5,0.00
2013-12-27,57.6,45.5,36.1,36.5,29.2,24.5,73,54,33,30.09,30.05,5,1,5,0.00
2013-12-28,64.8,48.0,34.9,33.5,21.5,8.1,72,42,12,30.05,29.88,12,3,12,0.00
2013-12-29,59.7,46.5,35.6,34.5,26.5,16.8,58,46,30,30.08,29.91,5,1,5,0.00
2013-12-30,59.5,46.5,35.8,37.0,29.4,24.7,70,53,28,30.12,30.08,5,1,5,0.00
2013-12-31,61.5,48.1,41.0,35.8,28.3,18.8,67,49,20,30.12,30.03,7,1,7,0.00
2014-1-1,60.1,46.1,36.0,37.5,27.5,23.3,66,50,26,30.06,30.00,5,0,5,0.00
2014-1-2,62.4,47.6,37.6,35.7,28.9,23.0,72,51,23,30.03,29.94,7,1,7,0.00